WIF8GH ENBR-ENAL

Flight info

Callsign WIF8GH
Flight time 0h 33m
Altitude 23000
Route OLDAS DCT TUMIM
Aircraft DH8D/M-SDE2E3FGRY/H

Departure

Time 2026-05-06 12:51
Airport Bergen Airport, Flesland (ENBR)

Arrival

Time 2026-05-06 13:24
Airport Ålesund Airport (ENAL)
Time Latitude Longitude Altitude Speed Heading
2026-05-06 12:26 60.28737 5.22896 181 ft 0 kts 80°
2026-05-06 12:41 60.28737 5.22897 181 ft 0 kts 80°
2026-05-06 12:42 60.28737 5.22896 181 ft 0 kts 80°
2026-05-06 12:42 60.28735 5.22869 179 ft 2 kts 80°
2026-05-06 12:42 60.28732 5.22839 178 ft 2 kts 80°
2026-05-06 12:42 60.28731 5.22821 178 ft 0 kts 80°
2026-05-06 12:45 60.28671 5.22652 172 ft 12 kts 260°
2026-05-06 12:46 60.28665 5.22500 172 ft 9 kts 287°
2026-05-06 12:46 60.28686 5.22385 170 ft 8 kts 298°
2026-05-06 12:46 60.28738 5.22340 170 ft 7 kts 348°
2026-05-06 12:46 60.28799 5.22315 171 ft 13 kts 348°
2026-05-06 12:47 60.28925 5.22271 170 ft 20 kts 349°
2026-05-06 12:47 60.29067 5.22229 168 ft 20 kts 352°
2026-05-06 12:47 60.29200 5.22184 165 ft 18 kts 349°
2026-05-06 12:47 60.29321 5.22145 161 ft 16 kts 348°
2026-05-06 12:48 60.29435 5.22103 158 ft 16 kts 351°
2026-05-06 12:48 60.29544 5.22065 155 ft 15 kts 349°
2026-05-06 12:48 60.29651 5.22032 152 ft 15 kts 351°
2026-05-06 12:48 60.29749 5.21998 153 ft 12 kts 350°
2026-05-06 12:49 60.29831 5.21970 154 ft 13 kts 350°
2026-05-06 12:49 60.29948 5.21929 155 ft 17 kts 349°
2026-05-06 12:49 60.30042 5.21857 156 ft 12 kts 288°
2026-05-06 12:49 60.30037 5.21704 156 ft 9 kts 259°
2026-05-06 12:50 60.30019 5.21592 154 ft 6 kts 207°
2026-05-06 12:50 60.30006 5.21589 153 ft 0 kts 171°
2026-05-06 12:50 60.29982 5.21597 152 ft 19 kts 171°
2026-05-06 12:50 60.29505 5.21755 148 ft 111 kts 170°
2026-05-06 12:51 60.28592 5.22052 361 ft 143 kts 174°
2026-05-06 12:51 60.27616 5.22246 1014 ft 147 kts 183°
2026-05-06 12:51 60.26618 5.21702 1546 ft 157 kts 215°
2026-05-06 12:51 60.25993 5.19965 2122 ft 158 kts 258°
2026-05-06 12:52 60.26072 5.17803 2648 ft 161 kts 294°
2026-05-06 12:52 60.26798 5.16137 3272 ft 163 kts 328°
2026-05-06 12:52 60.27885 5.15381 3827 ft 171 kts 347°
2026-05-06 12:52 60.29035 5.15024 4549 ft 166 kts 349°
2026-05-06 12:53 60.30181 5.14957 5199 ft 169 kts
2026-05-06 12:53 60.31352 5.15190 5770 ft 175 kts
2026-05-06 12:53 60.32618 5.15574 6134 ft 193 kts
2026-05-06 12:53 60.33964 5.15826 6596 ft 201 kts 359°
2026-05-06 12:54 60.35378 5.15841 7166 ft 204 kts 355°
2026-05-06 12:54 60.36807 5.15795 7661 ft 212 kts 356°
2026-05-06 12:54 60.38292 5.15777 8283 ft 214 kts 356°
2026-05-06 12:54 60.39766 5.15759 8894 ft 216 kts 358°
2026-05-06 12:55 60.41262 5.15815 9496 ft 219 kts 358°
2026-05-06 12:55 60.42782 5.15879 10074 ft 222 kts 357°
2026-05-06 12:55 60.44321 5.15809 10751 ft 219 kts 353°
2026-05-06 12:55 60.45835 5.15667 11337 ft 223 kts 354°
2026-05-06 12:56 60.47396 5.15673 11870 ft 228 kts 357°
2026-05-06 12:56 60.48954 5.15759 12477 ft 231 kts 356°
2026-05-06 12:56 60.50636 5.15757 12768 ft 244 kts 355°
2026-05-06 12:56 60.52315 5.15753 13362 ft 246 kts 355°
2026-05-06 12:57 60.54032 5.15764 13917 ft 249 kts 355°
2026-05-06 12:57 60.55776 5.15786 14481 ft 251 kts 355°
2026-05-06 12:57 60.57511 5.15816 15061 ft 253 kts 355°
2026-05-06 12:57 60.59279 5.15852 15634 ft 256 kts 354°
2026-05-06 12:58 60.61034 5.15892 16208 ft 257 kts 354°
2026-05-06 12:58 60.62822 5.15935 16716 ft 259 kts 354°
2026-05-06 12:58 60.64627 5.15980 17233 ft 262 kts 354°
2026-05-06 12:58 60.66443 5.16027 17726 ft 264 kts 354°
2026-05-06 12:59 60.68288 5.16076 18196 ft 266 kts 353°
2026-05-06 12:59 60.70134 5.16126 18667 ft 268 kts 353°
2026-05-06 12:59 60.72011 5.16179 19100 ft 271 kts 353°
2026-05-06 12:59 60.73893 5.16232 19539 ft 272 kts 353°
2026-05-06 13:00 60.75776 5.16285 19952 ft 274 kts 353°
2026-05-06 13:00 60.77676 5.16338 20294 ft 276 kts 353°
2026-05-06 13:00 60.79608 5.16393 20665 ft 277 kts 353°
2026-05-06 13:00 60.81543 5.16448 20986 ft 279 kts 353°
2026-05-06 13:01 60.83463 5.16504 21311 ft 280 kts 352°
2026-05-06 13:01 60.85406 5.16561 21632 ft 281 kts 352°
2026-05-06 13:01 60.87380 5.16618 21930 ft 282 kts 352°
2026-05-06 13:01 60.89329 5.16675 22191 ft 285 kts 352°
2026-05-06 13:02 60.91332 5.16732 22441 ft 287 kts 352°
2026-05-06 13:02 60.93299 5.16789 22673 ft 289 kts 352°
2026-05-06 13:02 60.95327 5.16848 22863 ft 292 kts 352°
2026-05-06 13:02 60.97390 5.16902 22920 ft 300 kts 352°
2026-05-06 13:03 60.99469 5.16957 22928 ft 307 kts 353°
2026-05-06 13:03 61.01654 5.17017 22927 ft 315 kts 353°
2026-05-06 13:03 61.03856 5.17080 22922 ft 321 kts 353°
2026-05-06 13:03 61.06097 5.17194 22918 ft 328 kts 357°
2026-05-06 13:04 61.08316 5.18493 22938 ft 344 kts 19°
2026-05-06 13:04 61.10438 5.20838 22925 ft 349 kts 23°
2026-05-06 13:04 61.12562 5.23271 22931 ft 352 kts 23°
2026-05-06 13:04 61.14727 5.25754 22912 ft 354 kts 23°
2026-05-06 13:05 61.16877 5.28218 22904 ft 355 kts 23°
2026-05-06 13:05 61.19033 5.30684 22912 ft 356 kts 23°
2026-05-06 13:05 61.21185 5.33143 22911 ft 357 kts 23°
2026-05-06 13:05 61.23360 5.35628 22922 ft 357 kts 23°
2026-05-06 13:06 61.25552 5.38133 22912 ft 358 kts 23°
2026-05-06 13:06 61.27722 5.40615 22918 ft 359 kts 23°
2026-05-06 13:06 61.29910 5.43119 22909 ft 359 kts 23°
2026-05-06 13:06 61.32079 5.45605 22910 ft 359 kts 24°
2026-05-06 13:07 61.34256 5.48103 22918 ft 358 kts 23°
2026-05-06 13:07 61.36433 5.50603 22925 ft 359 kts 24°
2026-05-06 13:07 61.38616 5.53114 22910 ft 359 kts 23°
2026-05-06 13:07 61.40794 5.55622 22932 ft 358 kts 24°
2026-05-06 13:08 61.42987 5.58152 22921 ft 358 kts 24°
2026-05-06 13:08 61.45134 5.60633 22920 ft 358 kts 24°
2026-05-06 13:08 61.47318 5.63160 22658 ft 353 kts 24°
2026-05-06 13:08 61.49434 5.65609 22350 ft 344 kts 25°
2026-05-06 13:09 61.51497 5.68000 22030 ft 337 kts 25°
2026-05-06 13:09 61.53508 5.70334 21726 ft 330 kts 25°
2026-05-06 13:09 61.55513 5.72663 21422 ft 324 kts 25°
2026-05-06 13:09 61.57456 5.74923 21117 ft 321 kts 26°
2026-05-06 13:10 61.59385 5.77173 20812 ft 318 kts 26°
2026-05-06 13:10 61.61313 5.79423 20506 ft 316 kts 26°
2026-05-06 13:10 61.63217 5.81651 20207 ft 313 kts 26°
2026-05-06 13:10 61.65099 5.83854 19913 ft 311 kts 26°
2026-05-06 13:11 61.66975 5.86055 19616 ft 310 kts 26°
2026-05-06 13:11 61.68875 5.88288 19338 ft 315 kts 27°
2026-05-06 13:11 61.70800 5.90554 19012 ft 319 kts 27°
2026-05-06 13:11 61.72743 5.92844 18704 ft 321 kts 27°
2026-05-06 13:12 61.74731 5.94919 18409 ft 323 kts 22°
2026-05-06 13:12 61.76779 5.96840 18112 ft 325 kts 22°
2026-05-06 13:12 61.78843 5.98777 17811 ft 326 kts 22°
2026-05-06 13:12 61.80923 6.00742 17515 ft 327 kts 22°
2026-05-06 13:13 61.82995 6.02711 17219 ft 328 kts 22°
2026-05-06 13:13 61.85054 6.04678 16917 ft 328 kts 22°
2026-05-06 13:13 61.87121 6.06659 16612 ft 328 kts 23°
2026-05-06 13:13 61.89213 6.08672 16310 ft 328 kts 22°
2026-05-06 13:14 61.91265 6.10652 16004 ft 328 kts 22°
2026-05-06 13:14 61.93349 6.12668 15697 ft 327 kts 22°
2026-05-06 13:14 61.95380 6.14636 15402 ft 326 kts 22°
2026-05-06 13:14 61.97443 6.16640 15101 ft 325 kts 22°
2026-05-06 13:15 61.99491 6.18632 14796 ft 324 kts 22°
2026-05-06 13:15 62.01545 6.20633 14490 ft 324 kts 22°
2026-05-06 13:15 62.03570 6.22610 14191 ft 323 kts 22°
2026-05-06 13:15 62.05603 6.24598 13890 ft 322 kts 22°
2026-05-06 13:16 62.07630 6.26582 13593 ft 321 kts 22°
2026-05-06 13:16 62.09687 6.28375 13278 ft 319 kts 14°
2026-05-06 13:16 62.11849 6.29239 13004 ft 312 kts
2026-05-06 13:16 62.13952 6.29777 12727 ft 302 kts
2026-05-06 13:17 62.15995 6.30274 12470 ft 293 kts
2026-05-06 13:17 62.18003 6.30763 12202 ft 286 kts
2026-05-06 13:17 62.19966 6.31242 11972 ft 288 kts
2026-05-06 13:17 62.22010 6.31743 11715 ft 297 kts
2026-05-06 13:18 62.24088 6.32240 11460 ft 300 kts
2026-05-06 13:18 62.26156 6.32737 11175 ft 301 kts
2026-05-06 13:18 62.28202 6.33229 10742 ft 294 kts
2026-05-06 13:18 62.30193 6.33674 10214 ft 285 kts
2026-05-06 13:19 62.32151 6.33863 9671 ft 277 kts 359°
2026-05-06 13:19 62.34064 6.33964 9091 ft 273 kts 359°
2026-05-06 13:19 62.35931 6.34050 8450 ft 272 kts 359°
2026-05-06 13:19 62.37809 6.34130 7798 ft 271 kts 359°
2026-05-06 13:20 62.39672 6.34193 7185 ft 269 kts 357°
2026-05-06 13:20 62.41530 6.33949 6529 ft 268 kts 354°
2026-05-06 13:20 62.43370 6.33584 5884 ft 268 kts 352°
2026-05-06 13:20 62.45198 6.32878 5290 ft 264 kts 346°
2026-05-06 13:21 62.46976 6.32060 4612 ft 263 kts 342°
2026-05-06 13:21 62.48695 6.30915 4071 ft 258 kts 339°
2026-05-06 13:21 62.50363 6.29699 3572 ft 253 kts 339°
2026-05-06 13:21 62.51992 6.28430 3238 ft 240 kts 338°
2026-05-06 13:22 62.53548 6.27348 2796 ft 237 kts 344°
2026-05-06 13:22 62.55136 6.26772 2483 ft 229 kts 352°
2026-05-06 13:22 62.56628 6.26342 2164 ft 208 kts 348°
2026-05-06 13:22 62.57880 6.25263 1951 ft 179 kts 316°
2026-05-06 13:23 62.58284 6.23148 1789 ft 148 kts 268°
2026-05-06 13:23 62.58271 6.20862 1179 ft 156 kts 266°
2026-05-06 13:23 62.57838 6.18847 793 ft 144 kts 236°
2026-05-06 13:23 62.57358 6.17068 506 ft 131 kts 241°
2026-05-06 13:24 62.56982 6.15328 315 ft 123 kts 243°
2026-05-06 13:24 62.56625 6.13678 181 ft 122 kts 240°
2026-05-06 13:24 62.56264 6.12055 56 ft 107 kts 245°
2026-05-06 13:24 62.56033 6.10996 71 ft 36 kts 244°
2026-05-06 13:25 62.55973 6.10764 70 ft 9 kts 205°
2026-05-06 13:25 62.55928 6.10823 70 ft 8 kts 108°
2026-05-06 13:25 62.55914 6.10937 70 ft 7 kts 109°
2026-05-06 13:25 62.55898 6.11041 71 ft 7 kts 104°
2026-05-06 13:26 62.55896 6.11143 72 ft 6 kts 69°
2026-05-06 13:26 62.55924 6.11273 73 ft 11 kts 64°
2026-05-06 13:26 62.55951 6.11409 74 ft 7 kts 89°
2026-05-06 13:26 62.55924 6.11460 74 ft 3 kts 154°
2026-05-06 13:27 62.55912 6.11472 74 ft 1 kts 154°
2026-05-06 13:27 62.55910 6.11475 74 ft 0 kts 154°